Weather in Gunboat

Kazakhstan     50°43′24″N   79°41′26″E
temp.,
°C
wind,
m/s
gust,
m/s
humid.,
%
clouds,
%
prec.,
mm/h
press.,
hPa
HPBL,
m
19 may, wed
wed1900:00+20w4105299 0.1 1008407
03:00+18nnw3353100 0.0 100756
06:00+17wnw266157 0.0 1007193
09:00+22nnw3446100 0.0 1007695
12:00+21nne6653100 0.1 10081126
15:00+22nw794694 0.1 10072066
18:00+17nne8956100 0.1 10091305
21:00+15nne6861100 0.0 10101039
20 may, thu
thu2000:00+14n6961100 0.0 1012976
03:00+11n610585 0.0 1012634
06:00+9n595618 0.0 1015685
09:00+12n79310 0.0 10171689
12:00+14nnw792374 0.0 10182874
15:00+16nnw91124100 0.0 10163171
18:00+15nnw8926100 0.0 10172617
21:00+11nne483413 0.0 1020506
21 may, fri
fri2100:00+9nne483834 0.0 1022374
03:00+7ne244579 0.0 1023132
06:00+7ene234487 0.0 1024137
09:00+10ese2233100 0.0 1025964
12:00+11e2129100 0.0 10241593
15:00+13s322790 0.0 10231643
18:00+14se33265 0.0 10221818
21:00+11e592916 0.0 1024401
22 may, sat
sat2200:00+8e510414 0.0 1025389
03:00+6ene310483 0.0 1025300
06:00+7ene4115194 0.0 1026336
09:00+12ene562722 0.0 1026753
12:00+17ene45185 0.0 10251355
15:00+19ne4416100 0.0 10241597
18:00+18ne4420100 0.0 10241419
21:00+14ne37335 0.0 1025161
23 may, sun
sun2300:00+12ene37440 0.0 1025150
03:00+10ene34520 0.0 102578
06:00+10ene35540 0.0 1026128
09:00+16ene33301 0.0 1025643
12:00+21ese22200 0.0 10241254
15:00+24e11190 0.0 10221550
18:00+24e22214 0.0 10211609
21:00+19se11320 0.0 102013